SHT21B EGJB-EGLL

Flight info

Callsign SHT21B
Flight time 0h 35m
Altitude 19000
Route ORIST L982 ROXOG
Aircraft A319/M-SDE3FGHIRWY/LB1

Departure

Time 2026-05-06 13:36
Airport Guernsey Airport (EGJB)

Arrival

Time 2026-05-06 14:12
Airport London Heathrow Airport (EGLL)
Time Latitude Longitude Altitude Speed Heading
2026-05-06 13:23 49.43294 -2.59456 326 ft 0 kts 177°
2026-05-06 13:28 49.43311 -2.59457 329 ft 4 kts 177°
2026-05-06 13:28 49.43337 -2.59459 327 ft 4 kts 185°
2026-05-06 13:28 49.43360 -2.59447 325 ft 4 kts 232°
2026-05-06 13:28 49.43368 -2.59420 327 ft 1 kts 266°
2026-05-06 13:29 49.43368 -2.59414 327 ft 0 kts 266°
2026-05-06 13:31 49.43368 -2.59418 327 ft 2 kts 266°
2026-05-06 13:31 49.43366 -2.59472 327 ft 9 kts 268°
2026-05-06 13:32 49.43363 -2.59609 328 ft 16 kts 267°
2026-05-06 13:32 49.43346 -2.59807 324 ft 15 kts 263°
2026-05-06 13:32 49.43341 -2.59932 323 ft 15 kts 266°
2026-05-06 13:32 49.43336 -2.60124 320 ft 21 kts 270°
2026-05-06 13:33 49.43333 -2.60288 318 ft 4 kts 267°
2026-05-06 13:33 49.43332 -2.60316 318 ft 7 kts 266°
2026-05-06 13:33 49.43328 -2.60436 316 ft 16 kts 268°
2026-05-06 13:33 49.43330 -2.60652 313 ft 24 kts 279°
2026-05-06 13:34 49.43356 -2.60875 310 ft 21 kts 278°
2026-05-06 13:34 49.43362 -2.61071 308 ft 17 kts 268°
2026-05-06 13:34 49.43359 -2.61228 305 ft 12 kts 275°
2026-05-06 13:34 49.43389 -2.61306 304 ft 6 kts 309°
2026-05-06 13:35 49.43426 -2.61355 304 ft 5 kts 332°
2026-05-06 13:35 49.43450 -2.61364 304 ft 5 kts
2026-05-06 13:35 49.43468 -2.61305 305 ft 8 kts 84°
2026-05-06 13:35 49.43468 -2.61262 306 ft 0 kts 90°
2026-05-06 13:36 49.43468 -2.61258 306 ft 6 kts 90°
2026-05-06 13:36 49.43487 -2.60562 314 ft 122 kts 87°
2026-05-06 13:36 49.43531 -2.59046 984 ft 149 kts 87°
2026-05-06 13:37 49.43575 -2.57416 2110 ft 152 kts 88°
2026-05-06 13:37 49.43613 -2.55833 3112 ft 148 kts 88°
2026-05-06 13:37 49.43660 -2.54160 3788 ft 168 kts 87°
2026-05-06 13:37 49.43713 -2.52242 4444 ft 192 kts 87°
2026-05-06 13:38 49.44002 -2.50112 5150 ft 218 kts 60°
2026-05-06 13:38 49.45146 -2.48568 6233 ft 227 kts 21°
2026-05-06 13:38 49.46682 -2.47918 7494 ft 230 kts 12°
2026-05-06 13:38 49.48258 -2.47335 8765 ft 238 kts 12°
2026-05-06 13:39 49.49957 -2.46713 9646 ft 264 kts 12°
2026-05-06 13:39 49.51815 -2.46028 10518 ft 283 kts 12°
2026-05-06 13:39 49.53754 -2.45303 11613 ft 290 kts 12°
2026-05-06 13:39 49.55718 -2.44560 12767 ft 296 kts 12°
2026-05-06 13:40 49.57732 -2.43796 13911 ft 302 kts 12°
2026-05-06 13:40 49.59790 -2.43010 14954 ft 307 kts 12°
2026-05-06 13:40 49.61882 -2.42206 15982 ft 313 kts 12°
2026-05-06 13:40 49.64041 -2.41373 16739 ft 330 kts 12°
2026-05-06 13:41 49.66341 -2.40488 17240 ft 351 kts 12°
2026-05-06 13:41 49.68698 -2.39260 18024 ft 363 kts 23°
2026-05-06 13:41 49.70887 -2.37221 18713 ft 371 kts 36°
2026-05-06 13:41 49.72764 -2.34461 18954 ft 374 kts 48°
2026-05-06 13:42 49.74445 -2.31390 19021 ft 373 kts 49°
2026-05-06 13:42 49.76101 -2.28358 19029 ft 373 kts 48°
2026-05-06 13:42 49.77779 -2.25297 19027 ft 373 kts 49°
2026-05-06 13:42 49.79460 -2.22241 19025 ft 372 kts 48°
2026-05-06 13:43 49.81135 -2.19195 19029 ft 372 kts 49°
2026-05-06 13:43 49.82807 -2.16142 19028 ft 372 kts 49°
2026-05-06 13:43 49.84481 -2.13081 19025 ft 372 kts 49°
2026-05-06 13:43 49.86150 -2.10025 19024 ft 372 kts 49°
2026-05-06 13:44 49.87819 -2.06966 19021 ft 372 kts 49°
2026-05-06 13:44 49.89491 -2.03899 19017 ft 372 kts 49°
2026-05-06 13:44 49.91159 -2.00834 19021 ft 372 kts 49°
2026-05-06 13:44 49.92830 -1.97759 19006 ft 372 kts 49°
2026-05-06 13:45 49.94496 -1.94687 19009 ft 372 kts 49°
2026-05-06 13:45 49.97802 -1.88580 19024 ft 371 kts 49°
2026-05-06 13:45 49.99563 -1.85659 19018 ft 370 kts 40°
2026-05-06 13:46 50.01626 -1.83284 19028 ft 369 kts 30°
2026-05-06 13:46 50.03890 -1.81431 19026 ft 368 kts 25°
2026-05-06 13:46 50.06170 -1.79634 19030 ft 368 kts 25°
2026-05-06 13:46 50.08453 -1.77825 19028 ft 367 kts 25°
2026-05-06 13:47 50.09994 -1.76602 19024 ft 367 kts 26°
2026-05-06 13:47 50.12206 -1.74726 19019 ft 367 kts 31°
2026-05-06 13:47 50.14242 -1.72308 19020 ft 368 kts 38°
2026-05-06 13:47 50.16212 -1.69751 19020 ft 369 kts 38°
2026-05-06 13:48 50.18184 -1.67193 19024 ft 369 kts 38°
2026-05-06 13:48 50.20159 -1.64629 19015 ft 369 kts 39°
2026-05-06 13:48 50.22132 -1.62069 19022 ft 369 kts 38°
2026-05-06 13:48 50.24103 -1.59507 19017 ft 369 kts 39°
2026-05-06 13:49 50.26153 -1.57125 19016 ft 368 kts 30°
2026-05-06 13:49 50.28447 -1.55377 19019 ft 366 kts 19°
2026-05-06 13:49 50.30867 -1.54171 19016 ft 365 kts 15°
2026-05-06 13:49 50.33299 -1.52994 19017 ft 365 kts 16°
2026-05-06 13:50 50.35723 -1.51807 19010 ft 365 kts 16°
2026-05-06 13:50 50.38144 -1.50612 19012 ft 365 kts 16°
2026-05-06 13:50 50.40565 -1.49416 19014 ft 365 kts 16°
2026-05-06 13:50 50.42982 -1.48218 19016 ft 365 kts 16°
2026-05-06 13:51 50.45403 -1.47021 19013 ft 365 kts 16°
2026-05-06 13:51 50.47794 -1.45839 19007 ft 365 kts 16°
2026-05-06 13:51 50.50214 -1.44643 19012 ft 365 kts 16°
2026-05-06 13:51 50.52635 -1.43445 19005 ft 365 kts 17°
2026-05-06 13:52 50.54972 -1.41875 18998 ft 366 kts 27°
2026-05-06 13:52 50.57208 -1.39955 19001 ft 367 kts 27°
2026-05-06 13:52 50.59453 -1.38030 19004 ft 366 kts 27°
2026-05-06 13:52 50.61689 -1.36114 19000 ft 366 kts 27°
2026-05-06 13:53 50.63933 -1.34191 19008 ft 366 kts 27°
2026-05-06 13:53 50.66169 -1.32270 19008 ft 366 kts 27°
2026-05-06 13:53 50.68407 -1.30344 19005 ft 366 kts 27°
2026-05-06 13:53 50.70302 -1.28712 19003 ft 367 kts 27°
2026-05-06 13:54 50.72542 -1.26777 19008 ft 367 kts 27°
2026-05-06 13:54 50.74779 -1.24835 19011 ft 367 kts 27°
2026-05-06 13:54 50.77004 -1.22867 19009 ft 367 kts 29°
2026-05-06 13:54 50.79178 -1.20760 18949 ft 364 kts 31°
2026-05-06 13:55 50.81303 -1.18572 18315 ft 364 kts 32°
2026-05-06 13:55 50.83368 -1.16379 17691 ft 359 kts 32°
2026-05-06 13:55 50.85423 -1.14184 17137 ft 353 kts 32°
2026-05-06 13:55 50.87447 -1.12039 16580 ft 347 kts 32°
2026-05-06 13:56 50.89445 -1.09942 16043 ft 342 kts 31°
2026-05-06 13:56 50.91419 -1.07885 15494 ft 337 kts 31°
2026-05-06 13:56 50.93375 -1.05859 14965 ft 333 kts 31°
2026-05-06 13:56 50.95305 -1.03860 14436 ft 330 kts 31°
2026-05-06 13:57 50.97218 -1.01879 13918 ft 326 kts 31°
2026-05-06 13:57 50.99104 -0.99921 13356 ft 323 kts 31°
2026-05-06 13:57 51.00879 -0.97738 13002 ft 323 kts 41°
2026-05-06 13:57 51.02402 -0.95097 12976 ft 325 kts 46°
2026-05-06 13:58 51.03911 -0.92410 12993 ft 325 kts 46°
2026-05-06 13:58 51.05419 -0.89739 12994 ft 325 kts 46°
2026-05-06 13:58 51.06932 -0.87057 12742 ft 326 kts 46°
2026-05-06 13:58 51.08449 -0.84366 11760 ft 335 kts 46°
2026-05-06 13:59 51.09999 -0.81603 11028 ft 334 kts 45°
2026-05-06 13:59 51.11534 -0.78859 10416 ft 329 kts 46°
2026-05-06 13:59 51.13025 -0.76192 10175 ft 313 kts 46°
2026-05-06 13:59 51.14434 -0.73666 10057 ft 297 kts 46°
2026-05-06 14:00 51.15776 -0.71255 9778 ft 288 kts 46°
2026-05-06 14:00 51.17094 -0.68888 9573 ft 284 kts 45°
2026-05-06 14:00 51.18401 -0.66545 9262 ft 282 kts 45°
2026-05-06 14:00 51.19702 -0.64214 9071 ft 281 kts 45°
2026-05-06 14:01 51.20996 -0.61892 8942 ft 280 kts 45°
2026-05-06 14:01 51.22290 -0.59561 8802 ft 280 kts 46°
2026-05-06 14:01 51.23572 -0.57248 8406 ft 277 kts 45°
2026-05-06 14:01 51.24842 -0.54957 7970 ft 275 kts 45°
2026-05-06 14:02 51.26094 -0.52699 7531 ft 274 kts 45°
2026-05-06 14:02 51.27365 -0.50402 7203 ft 269 kts 45°
2026-05-06 14:02 51.28558 -0.48242 7089 ft 257 kts 45°
2026-05-06 14:02 51.29716 -0.46142 6992 ft 246 kts 45°
2026-05-06 14:03 51.30825 -0.44140 6993 ft 243 kts 43°
2026-05-06 14:03 51.32226 -0.42608 6994 ft 238 kts 15°
2026-05-06 14:03 51.33807 -0.42487 7006 ft 227 kts 345°
2026-05-06 14:03 51.35148 -0.43772 7002 ft 229 kts 313°
2026-05-06 14:04 51.35910 -0.46010 6997 ft 232 kts 293°
2026-05-06 14:04 51.36445 -0.48435 6781 ft 231 kts 291°
2026-05-06 14:04 51.36963 -0.50877 6434 ft 232 kts 291°
2026-05-06 14:04 51.37480 -0.53315 6139 ft 231 kts 291°
2026-05-06 14:05 51.37991 -0.55749 5821 ft 229 kts 291°
2026-05-06 14:05 51.38494 -0.58163 5475 ft 229 kts 291°
2026-05-06 14:05 51.38986 -0.60592 5130 ft 228 kts 291°
2026-05-06 14:05 51.39459 -0.62982 4804 ft 227 kts 291°
2026-05-06 14:06 51.39948 -0.65423 4462 ft 227 kts 291°
2026-05-06 14:06 51.40434 -0.67796 4124 ft 226 kts 291°
2026-05-06 14:06 51.40924 -0.70178 4001 ft 225 kts 291°
2026-05-06 14:06 51.41459 -0.72510 3927 ft 215 kts 301°
2026-05-06 14:07 51.42476 -0.74054 3795 ft 196 kts 338°
2026-05-06 14:07 51.43757 -0.74403 3677 ft 182 kts 358°
2026-05-06 14:07 51.44988 -0.74402 3506 ft 172 kts
2026-05-06 14:07 51.46139 -0.74020 3118 ft 172 kts 28°
2026-05-06 14:08 51.46959 -0.72641 2993 ft 176 kts 52°
2026-05-06 14:08 51.47490 -0.70847 2842 ft 181 kts 69°
2026-05-06 14:08 51.47647 -0.68837 2637 ft 184 kts 85°
2026-05-06 14:08 51.47656 -0.66830 2394 ft 173 kts 85°
2026-05-06 14:09 51.47667 -0.64948 2175 ft 166 kts 85°
2026-05-06 14:09 51.47678 -0.63111 1953 ft 163 kts 86°
2026-05-06 14:09 51.47688 -0.61297 1729 ft 162 kts 84°
2026-05-06 14:09 51.47698 -0.59474 1501 ft 164 kts 85°
2026-05-06 14:10 51.47707 -0.57654 1277 ft 166 kts 84°
2026-05-06 14:10 51.47714 -0.55852 1042 ft 147 kts 85°
2026-05-06 14:10 51.47719 -0.54353 849 ft 124 kts 85°
2026-05-06 14:10 51.47725 -0.53027 695 ft 115 kts 85°
2026-05-06 14:11 51.47732 -0.51790 543 ft 111 kts 84°
2026-05-06 14:11 51.47743 -0.50562 391 ft 109 kts 83°
2026-05-06 14:11 51.47748 -0.49356 249 ft 107 kts 84°
2026-05-06 14:11 51.47752 -0.48159 111 ft 106 kts 83°
2026-05-06 14:12 51.47758 -0.47209 86 ft 47 kts 89°
2026-05-06 14:12 51.47757 -0.46995 88 ft 16 kts 88°
2026-05-06 14:12 51.47758 -0.46703 89 ft 36 kts 91°
2026-05-06 14:12 51.47757 -0.46349 88 ft 27 kts 90°
2026-05-06 14:13 51.47677 -0.46114 86 ft 17 kts 147°
2026-05-06 14:13 51.47595 -0.46139 89 ft 15 kts 259°
2026-05-06 14:13 51.47594 -0.46340 87 ft 21 kts 269°
2026-05-06 14:13 51.47591 -0.46604 87 ft 26 kts 269°
2026-05-06 14:14 51.47585 -0.46927 87 ft 32 kts 265°
2026-05-06 14:14 51.47582 -0.47314 88 ft 35 kts 269°
2026-05-06 14:14 51.47581 -0.47659 88 ft 16 kts 269°
2026-05-06 14:14 51.47579 -0.47872 89 ft 21 kts 269°
2026-05-06 14:15 51.47579 -0.48127 87 ft 25 kts 270°
2026-05-06 14:15 51.47578 -0.48403 87 ft 21 kts 267°
2026-05-06 14:15 51.47504 -0.48474 86 ft 10 kts 183°
2026-05-06 14:15 51.47427 -0.48475 86 ft 13 kts 179°
2026-05-06 14:16 51.47326 -0.48474 86 ft 13 kts 180°
2026-05-06 14:16 51.47221 -0.48473 86 ft 17 kts 179°
2026-05-06 14:16 51.47118 -0.48472 86 ft 11 kts 180°
2026-05-06 14:16 51.47088 -0.48526 86 ft 7 kts 263°
2026-05-06 14:17 51.47087 -0.48582 86 ft 1 kts 270°
2026-05-06 14:17 51.47087 -0.48586 86 ft 0 kts 270°